Regional Weather Roundup
Issued by NWS Northern Indiana

Home | Current Version | Previous Version | Text Only | Print | Product List | Glossary Off
Versions: 1 2 3 4 5 6 7 8 9 10 11 12 13 14 15 16 17 18 19 20 21 22 23 24 25 26 27 28 29 30 31 32 33 34 35 36 37 38 39 40 41 42 43 44 45 46 47 48 49 50

000
ASUS43 KIWX 250000
RWRIWX

KIWX WEATHER ROUNDUP
NATIONAL WEATHER SERVICE NORTHERN INDIANA
800 PM EDT SUN SEP 24 2017

NOTE: "FAIR" INDICATES FEW OR NO CLOUDS BELOW 12,000 FEET WITH NO
SIGNIFICANT WEATHER AND/OR OBSTRUCTIONS TO VISIBILITY.

* THESE STATIONS ARE NOT UNDER NWS QUALITY CONTROL. THEY ALSO MAY NOT
  REPORT WEATHER SUCH AS PRECIPITATION OR FOG.

INZ001>027-250100-
NORTHERN INDIANA

CITY           SKY/WX    TMP DP  RH WIND       PRES   REMARKS
GARY*          PTCLDY    77  63  61 E3        30.02S
SOUTH BEND     CLEAR     82  57  42 E6        30.04F
6HR MIN TEMP:  82; 6HR MAX TEMP:  90;

GOSHEN         CLEAR     75  59  57 E5        30.04F
6HR MIN TEMP:  75; 6HR MAX TEMP:  90;

FORT WAYNE     PTCLDY    78  59  51 SE6       30.06S
6HR MIN TEMP:  78; 6HR MAX TEMP:  89;

PERU/GRISSOM   CLEAR     79  58  48 E3        30.03S
6HR MIN TEMP:  79; 6HR MAX TEMP:  91;


$$
INZ028>050-250100-
CENTRAL INDIANA

CITY           SKY/WX    TMP DP  RH WIND       PRES   REMARKS
LAFAYETTE      CLEAR     76  60  57 E3        30.00F
6HR MIN TEMP:  76; 6HR MAX TEMP:  89;

KOKOMO*        CLEAR     77  56  48 SE8       30.05S
6HR MIN TEMP:  76; 6HR MAX TEMP:  89;

MUNCIE*        CLEAR     70  61  73 CALM      30.06S
6HR MIN TEMP:  70; 6HR MAX TEMP:  92;

INDIANAPOLIS   PTCLDY    82  56  40 SE7       30.03S
6HR MIN TEMP:  82; 6HR MAX TEMP:  92;


$$
MIZ043>046-050>051-056>058-064>065-071>073-077>080-250100-
SOUTHWEST LOWER MICHIGAN

CITY           SKY/WX    TMP DP  RH WIND       PRES   REMARKS
BATTLE CREEK   CLEAR     83  58  42 CALM      30.08S
6HR MIN TEMP:  83; 6HR MAX TEMP:  92; 6HR PCP: TRACE;

BENTON HARBOR  CLEAR     77  60  55 CALM      30.03S
6HR MIN TEMP:  77; 6HR MAX TEMP:  92;

COLDWATER*     CLEAR     76  59  56 CALM      30.07F
6HR MIN TEMP:  76; 6HR MAX TEMP:  89;

HILLSDALE*     MOCLDY    72  59  64 E5        30.09S
HOLLAND        CLEAR     74  61  63 CALM      30.04F
6HR MIN TEMP:  74; 6HR MAX TEMP:  92;

GRAND RAPIDS   CLEAR     81  57  43 S5        30.05S
6HR MIN TEMP:  81; 6HR MAX TEMP:  94;

KALAMAZOO      CLEAR     82  55  39 CALM      30.06S
6HR MIN TEMP:  82; 6HR MAX TEMP:  92;

STURGIS*       CLEAR     76  60  57 E3        30.05F
6HR MIN TEMP:  75; 6HR MAX TEMP:  90;

THREE RIVERS*  FAIR      79  58  48 CALM      30.06F
6HR MIN TEMP:  79; 6HR MAX TEMP:  92;


$$
OHZ001>008-015>018-024>025-250100-
NORTHWEST OHIO

CITY           SKY/WX    TMP DP  RH WIND       PRES   REMARKS
DEFIANCE       CLEAR     75  64  68 NE3       30.06S
6HR MIN TEMP:  75; 6HR MAX TEMP:  90;

FINDLAY        CLEAR     82  64  54 E7        30.06S
6HR MIN TEMP:  82; 6HR MAX TEMP:  92;

TOLEDO EXPRESS CLEAR     76  67  73 E5        30.07S
6HR MIN TEMP:  76; 6HR MAX TEMP:  92;

TOLEDO METCALF CLEAR     78  66  66 E6        30.08S
6HR MIN TEMP:  78; 6HR MAX TEMP:  91;

LIMA           CLEAR     73  61  65 SE5       30.07S
6HR MIN TEMP:  72; 6HR MAX TEMP:  91;


$$
AND FOR LAKE MICHIGAN COASTAL AND OPEN LAKE BUOY OBSERVATIONS

STATION/POSITION TEMP    WIND        PRES    VSBY  WAVE
                 AIR SEA DIR/SP/G                  HT/PER
                 (F)     (DEG/KT/KT) (MB)    (MI)  (FT/S)
CALUMET HARBOR    78      70/  5/  8 1015.7F
MICHIGAN CITY     82      80/  5/  6   N/A
BURNS HARBOR      74      20/  3/  3 1016.6F
SAINT JOSEPH      91     230/  1/  3 1017.6
SOUTH LAKE BUOY   78 72  160/  2/  2 1016.6          0
4 MI NW BRIDGMAN  74 73   60/  4/  6 1016.4F         0
MICHIGAN CITY     75 73   70/  6/  8   N/A           1

$$
&&




USA.gov is the U.S. government's official web portal to all federal, state and local government web resources and services.